{"data":{"norad_id":63824,"intl_designator":"2025-092W","name":"STARLINK-34025","alt_names":[],"object_type":"PAYLOAD","status":"ACTIVE","operator":null,"country":"US","launch_date":"2025-05-04","launch_site_code":"AFETR","launch_vehicle":null,"mission":null,"orbit_class":"UNKNOWN","rcs_meters":null,"size_class":null,"mass_kg":null,"dimensions":null,"purposes":["comms"],"wikipedia_slug":null,"has_3d_model":false,"image_url":null,"decayed_at":null,"tle_current":{"epoch":"2026-05-25T03:47:41.428032Z","epoch_age_seconds":71977,"freshness":"FRESH","line1":"1 63824U 25092W   26145.15811838  .00020727  00000+0  75985-3 0  9998","line2":"2 63824  42.9997 100.3305 0000777 249.7024 110.3744 15.27612724 60256","mean_motion":15.27612724,"eccentricity":7.77e-5,"inclination_deg":42.9997,"raan_deg":100.3305,"arg_perigee_deg":249.7024,"mean_anomaly_deg":110.3744,"bstar":0.00075985,"rev_number":6025,"period_min":94.264729363435,"perigee_km":482.4180038143,"apogee_km":483.48421690665,"semimajor_km":6861.0881103605,"source":"CELESTRAK","updated_at":"2026-05-25T13:38:20.143653Z"}}}